WA7SMZ Weather Reports


time (UTC)temp
C
wind
direction
speed
KPH
gust
KPH
rain 1hr
cm
rain 24hr
cm
rain mn
cm
humidity
%
barometer
mb
20260505224515 17 42 4.8 9.7 0.00 0.00 0.00 83 1015.3
20260505224015 17 81 6.4 11.3 0.00 0.00 0.00 82 1015.4
20260505223514 17 45 1.6 8.0 0.00 0.00 0.00 84 1015.3
20260505223013 17 89 0.0 8.0 0.00 0.00 0.00 84 1015.3
20260505222513 17 79 1.6 4.8 0.00 0.00 0.00 85 1015.4
20260505222017 17 63 4.8 11.3 0.00 0.00 0.00 83 1015.4
20260505221514 17 33 1.6 9.7 0.00 0.00 0.00 84 1015.4
20260505221016 17 335 3.2 8.0 0.00 0.00 0.00 84 1015.5
20260505220014 17 33 3.2 4.8 0.00 0.00 0.00 86 1015.7
20260505215512 17 268 0.0 1.6 0.00 0.00 0.00 85 1015.8
20260505215013 17 287 0.0 1.6 0.00 0.00 0.00 85 1015.9
20260505214515 16 284 0.0 0.0 0.00 0.00 0.00 85 1015.9
20260505214015 16 284 0.0 3.2 0.00 0.00 0.00 86 1015.9
20260505213513 16 64 0.0 4.8 0.00 0.00 0.00 87 1015.9
20260505213016 16 23 4.8 8.0 0.00 0.00 0.00 87 1015.8
20260505212514 16 45 4.8 9.7 0.00 0.00 0.00 86 1015.9
20260505211017 16 35 1.6 4.8 0.00 0.00 0.00 88 1015.9
20260505210512 16 73 3.2 8.0 0.00 0.00 0.00 87 1015.9
20260505210014 16 15 4.8 8.0 0.00 0.00 0.00 87 1015.9
20260505205513 16 14 4.8 9.7 0.00 0.00 0.00 87 1016.0
20260505205015 16 342 0.0 4.8 0.00 0.00 0.00 88 1016.0
20260505204513 16 16 3.2 8.0 0.00 0.00 0.00 87 1016.1
20260505204015 16 306 1.6 9.7 0.00 0.00 0.00 87 1016.1
20260505203014 16 37 0.0 0.0 0.00 0.00 0.00 86 1016.0
20260505202514 16 37 0.0 0.0 0.00 0.00 0.00 87 1016.0
20260505201514 16 37 0.0 0.0 0.00 0.00 0.00 86 1016.2
20260505201016 16 37 0.0 0.0 0.00 0.00 0.00 86 1016.1
20260505200513 16 37 1.6 3.2 0.00 0.00 0.00 87 1016.2
20260505200013 16 196 0.0 0.0 0.00 0.00 0.00 86 1016.2
20260505195513 16 196 0.0 3.2 0.00 0.00 0.00 86 1016.2
20260505195014 16 124 0.0 0.0 0.00 0.00 0.00 85 1016.2
20260505194513 16 124 1.6 4.8 0.00 0.00 0.00 86 1016.1
20260505194015 16 23 0.0 0.0 0.00 0.00 0.00 86 1016.2
20260505193513 16 23 0.0 0.0 0.00 0.00 0.00 86 1016.2
20260505192514 16 23 0.0 0.0 0.00 0.00 0.00 87 1016.4
20260505192014 15 23 0.0 0.0 0.00 0.00 0.00 86 1016.3
20260505191512 15 23 0.0 1.6 0.00 0.00 0.00 88 1016.4
20260505190511 15 25 0.0 0.0 0.00 0.00 0.00 87 1016.3
20260505190015 15 25 0.0 8.0 0.00 0.00 0.00 88 1016.3
20260505185513 15 312 0.0 0.0 0.00 0.00 0.00 87 1016.2
20260505185015 15 312 1.6 4.8 0.00 0.00 0.00 88 1016.2
20260505184513 15 177 1.6 3.2 0.00 0.00 0.00 87 1016.2
20260505184015 15 123 0.0 1.6 0.00 0.00 0.00 88 1016.1
20260505183512 15 162 1.6 4.8 0.00 0.00 0.00 87 1016.1
20260505183014 15 138 1.6 4.8 0.00 0.00 0.00 88 1016.1
20260505182514 15 254 0.0 8.0 0.00 0.00 0.00 87 1016.1
20260505182014 15 79 1.6 8.0 0.00 0.00 0.00 89 1016.1
20260505181512 15 69 1.6 8.0 0.00 0.00 0.00 87 1016.1
20260505181014 15 173 3.2 9.7 0.00 0.00 0.00 88 1016.1
20260505180515 15 74 0.0 1.6 0.00 0.00 0.00 89 1016.1
20260505180015 15 75 0.0 3.2 0.00 0.00 0.00 88 1016.1
20260505175512 15 247 0.0 4.8 0.00 0.00 0.00 87 1016.1
20260505175015 15 240 0.0 4.8 0.00 0.00 0.00 88 1016.1
20260505174514 15 244 0.0 0.0 0.00 0.00 0.00 88 1016.1
20260505174014 15 244 0.0 0.0 0.00 0.00 0.00 90 1016.0
20260505173017 15 244 0.0 1.6 0.00 0.00 0.00 89 1016.0
20260505172014 15 181 0.0 4.8 0.00 0.00 0.00 90 1015.8
20260505171014 15 186 1.6 8.0 0.00 0.00 0.00 91 1015.9
20260505170513 15 246 1.6 3.2 0.00 0.00 0.00 91 1015.9
20260505170013 14 172 0.0 4.8 0.00 0.00 0.00 93 1015.9
20260505165514 14 116 0.0 4.8 0.00 0.00 0.00 92 1015.9
20260505165016 14 188 1.6 4.8 0.00 0.00 0.00 92 1015.9
20260505164513 14 161 1.6 3.2 0.00 0.00 0.00 92 1016.0
20260505163016 14 148 0.0 3.2 0.00 0.00 0.00 92 1015.9
20260505162515 14 169 1.6 1.6 0.00 0.00 0.00 92 1015.9
20260505162013 14 187 0.0 1.6 0.00 0.00 0.00 93 1015.9
20260505161515 14 185 1.6 3.2 0.00 0.00 0.00 93 1015.8
20260505161017 14 171 0.0 1.6 0.00 0.00 0.00 94 1015.8
20260505160512 14 165 0.0 3.2 0.00 0.00 0.00 94 1015.8
20260505153016 13 100 0.0 0.0 0.00 0.00 0.00 96 1015.8
20260505152513 13 100 0.0 0.0 0.00 0.00 0.00 97 1015.8
20260505152016 13 100 0.0 0.0 0.00 0.00 0.00 97 1015.8
20260505151514 13 100 0.0 0.0 0.00 0.00 0.00 97 1015.7
20260505151016 13 100 0.0 0.0 0.00 0.00 0.00 97 1015.8
20260505150512 13 100 0.0 0.0 0.00 0.00 0.00 97 1015.7
20260505140513 12 100 0.0 0.0 0.00 0.00 0.00 98 1015.3
20260505124015 12 144 0.0 0.0 0.00 0.00 0.00 97 1014.7
20260505123514 12 144 0.0 0.0 0.00 0.00 0.00 97 1014.7
20260505123014 12 144 0.0 0.0 0.00 0.00 0.00 97 1014.7
20260505122514 12 144 0.0 0.0 0.00 0.00 0.00 97 1014.6
20260505122014 12 144 0.0 0.0 0.00 0.00 0.00 97 1014.7
20260505121513 12 144 0.0 0.0 0.00 0.00 0.00 97 1014.6
20260505121016 12 144 0.0 0.0 0.00 0.00 0.00 97 1014.7
20260505120513 12 144 0.0 0.0 0.00 0.00 0.00 97 1014.6
20260505120013 12 144 0.0 0.0 0.00 0.00 0.00 97 1014.6
20260505115513 12 144 0.0 0.0 0.00 0.00 0.00 97 1014.5
20260505114513 12 144 0.0 0.0 0.00 0.00 0.00 98 1014.5
20260505114014 12 144 0.0 0.0 0.00 0.00 0.00 98 1014.5
20260505113015 12 127 0.0 1.6 0.00 0.00 0.00 98 1014.5
20260505112513 12 148 0.0 1.6 0.00 0.00 0.00 98 1014.5
20260505112016 12 151 0.0 3.2 0.00 0.00 0.00 98 1014.5
20260505111014 12 174 0.0 0.0 0.00 0.00 0.00 98 1014.5
20260505110511 12 174 0.0 0.0 0.00 0.00 0.00 98 1014.4
20260505102014 12 174 0.0 0.0 0.00 0.00 0.00 98 1014.2
20260505101014 12 174 0.0 0.0 0.00 0.00 0.00 98 1014.1
20260505100515 12 174 0.0 0.0 0.00 0.00 0.00 98 1014.2
20260505100014 12 174 0.0 0.0 0.00 0.00 0.00 98 1014.2
20260505095513 12 174 0.0 0.0 0.00 0.00 0.00 98 1014.1
20260505095015 12 174 0.0 0.0 0.00 0.00 0.00 98 1014.1
20260505094514 12 174 0.0 0.0 0.00 0.00 0.00 97 1014.1
20260505094015 12 174 0.0 0.0 0.00 0.00 0.00 97 1014.1
20260505093512 12 174 0.0 0.0 0.00 0.00 0.00 97 1014.0
20260505093015 12 174 0.0 0.0 0.00 0.00 0.00 97 1014.0
20260505092513 12 174 0.0 1.6 0.00 0.00 0.00 97 1014.0
20260505092015 12 161 0.0 0.0 0.00 0.00 0.00 97 1014.0
20260505091512 12 161 0.0 3.2 0.00 0.00 0.00 97 1014.0
20260505091015 12 202 0.0 0.0 0.00 0.00 0.00 97 1014.0
20260505090513 12 202 0.0 0.0 0.00 0.00 0.00 96 1013.9
20260505090013 12 202 0.0 0.0 0.00 0.00 0.00 96 1013.9
20260505085513 12 202 0.0 0.0 0.00 0.00 0.00 96 1013.9
20260505084016 12 202 0.0 3.2 0.00 0.00 0.00 96 1013.7
20260505083513 12 226 0.0 3.2 0.00 0.00 0.00 96 1013.8
20260505083016 12 226 1.6 4.8 0.00 0.00 0.00 96 1013.9
20260505082016 12 234 1.6 4.8 0.00 0.00 0.00 96 1013.8
20260505081514 12 238 3.2 8.0 0.00 0.00 0.00 96 1013.8
20260505081017 12 225 1.6 4.8 0.00 0.00 0.00 96 1013.8
20260505080512 12 198 1.6 3.2 0.00 0.00 0.00 96 1013.8
20260505080011 12 270 0.0 0.0 0.00 0.00 0.00 96 1013.8
20260505075512 12 270 0.0 0.0 0.00 0.00 0.00 96 1013.8
20260505075015 12 270 0.0 4.8 0.00 0.00 0.00 96 1013.8
20260505074514 12 216 0.0 3.2 0.00 0.00 0.00 96 1013.7
20260505074015 12 235 1.6 8.0 0.00 0.00 0.00 97 1013.7
20260505073511 12 241 0.0 0.0 0.00 0.00 0.00 97 1013.7
20260505073016 12 241 1.6 4.8 0.00 0.00 0.00 97 1013.6
20260505072515 12 239 1.6 4.8 0.00 0.00 0.00 97 1013.6
20260505072016 12 242 0.0 3.2 0.00 0.00 0.00 97 1013.5
20260505071513 12 223 0.0 0.0 0.00 0.00 0.00 97 1013.6
20260505070513 12 202 0.0 0.0 0.00 0.00 0.00 97 1013.5
20260505070014 12 202 0.0 3.2 0.00 0.00 0.00 97 1013.5
20260505065514 12 213 1.6 4.8 0.00 0.00 0.00 97 1013.4
20260505065016 12 171 1.6 4.8 0.00 0.00 0.00 97 1013.5
20260505064514 12 222 0.0 4.8 0.00 0.00 0.00 97 1013.4
20260505064018 12 233 3.2 3.2 0.00 0.00 0.00 97 1013.4
20260505063513 12 224 1.6 3.2 0.00 0.00 0.00 97 1013.4
20260505063016 12 220 1.6 4.8 0.00 0.00 0.00 97 1013.4
20260505062513 12 200 1.6 3.2 0.00 0.00 0.00 98 1013.4
20260505062014 12 235 1.6 4.8 0.00 0.00 0.00 98 1013.4
20260505061514 12 233 1.6 4.8 0.00 0.00 0.00 98 1013.4
20260505061015 12 222 0.0 0.0 0.00 0.00 0.00 98 1013.3
20260505060515 12 222 0.0 0.0 0.00 0.00 0.00 98 1013.3
20260505060014 12 222 0.0 0.0 0.00 0.00 0.00 97 1013.3
20260505055512 12 222 0.0 0.0 0.00 0.00 0.00 97 1013.4
20260505055015 12 222 0.0 0.0 0.00 0.00 0.00 97 1013.3
20260505054512 12 222 0.0 0.0 0.00 0.00 0.00 97 1013.3
20260505053513 12 222 0.0 0.0 0.00 0.00 0.00 97 1013.2
20260505053015 12 222 0.0 0.0 0.00 0.00 0.00 97 1013.2
20260505052520 12 222 0.0 0.0 0.00 0.00 0.00 97 1013.2
20260505052017 12 222 0.0 0.0 0.00 0.00 0.00 96 1013.1
20260505051515 12 222 0.0 0.0 0.00 0.00 0.00 96 1013.1
20260505051015 12 222 0.0 0.0 0.00 0.00 0.00 96 1013.1
20260505050513 12 222 0.0 0.0 0.00 0.00 0.00 96 1013.0
20260505041512 13 183 0.0 3.2 0.00 0.00 0.00 95 1012.3
20260505041014 13 240 0.0 0.0 0.00 0.00 0.00 95 1012.2
20260505040517 13 240 0.0 0.0 0.00 0.00 0.00 94 1012.1
20260505035513 14 150 0.0 0.0 0.00 0.00 0.00 93 1011.9
20260505035016 14 150 0.0 0.0 0.00 0.00 0.00 93 1011.9
20260505034511 14 150 0.0 0.0 0.00 0.00 0.00 92 1011.8
20260505033513 15 185 1.6 3.2 0.00 0.00 0.00 91 1011.7
20260505033014 15 215 0.0 0.0 0.00 0.00 0.00 90 1011.6
20260505032515 15 215 0.0 0.0 0.00 0.00 0.00 89 1011.5
20260505032015 16 215 0.0 0.0 0.00 0.00 0.00 88 1011.3
20260505031015 16 186 0.0 0.0 0.00 0.00 0.00 87 1011.1
20260505030511 16 186 0.0 1.6 0.00 0.00 0.00 86 1011.1
20260505030014 17 241 0.0 0.0 0.00 0.00 0.00 85 1011.0
20260505025512 17 241 0.0 0.0 0.00 0.00 0.00 84 1011.0
20260505024512 17 242 0.0 4.8 0.00 0.00 0.00 83 1010.8
20260505024014 17 228 0.0 3.2 0.00 0.00 0.00 82 1010.8
20260505023514 17 195 0.0 3.2 0.00 0.00 0.00 82 1010.8
20260505023016 18 220 1.6 4.8 0.00 0.00 0.00 82 1010.8
20260505022514 18 210 1.6 4.8 0.00 0.00 0.00 82 1010.7
20260505022014 18 231 3.2 4.8 0.00 0.00 0.00 81 1010.6
20260505021512 18 228 3.2 9.7 0.00 0.00 0.00 80 1010.7
20260505021015 19 235 1.6 8.0 0.00 0.00 0.00 79 1010.6
20260505020513 19 224 1.6 4.8 0.00 0.00 0.00 77 1010.6
20260505020012 20 230 0.0 4.8 0.00 0.00 0.00 77 1010.6
20260505015513 20 216 1.6 8.0 0.00 0.00 0.00 76 1010.6
20260505015014 20 229 3.2 8.0 0.00 0.00 0.00 76 1010.6
20260505014514 20 306 1.6 8.0 0.00 0.00 0.00 75 1010.6
20260505014014 20 259 3.2 8.0 0.00 0.00 0.00 74 1010.6
20260505013513 21 284 3.2 12.9 0.00 0.00 0.00 74 1010.6
20260505012514 21 244 1.6 8.0 0.00 0.00 0.00 74 1010.7
20260505011514 21 231 1.6 11.3 0.00 0.00 0.00 73 1010.8
20260505011014 21 239 1.6 4.8 0.00 0.00 0.00 73 1010.8
20260505010513 21 217 3.2 8.0 0.00 0.00 0.00 72 1010.8
20260505005511 22 231 3.2 9.7 0.00 0.00 0.00 72 1010.8
20260505005014 22 238 3.2 4.8 0.00 0.00 0.00 72 1010.8
20260505004016 22 213 1.6 3.2 0.00 0.00 0.00 72 1010.8
20260505003513 22 211 1.6 4.8 0.00 0.00 0.00 73 1010.8
20260505003014 22 179 4.8 9.7 0.00 0.00 0.00 71 1010.8
20260505002514 22 186 3.2 8.0 0.00 0.00 0.00 71 1010.8
20260505002016 22 210 1.6 8.0 0.00 0.00 0.00 70 1010.8
20260505001513 22 223 4.8 9.7 0.00 0.00 0.00 70 1010.9
20260505001016 22 274 0.0 4.8 0.00 0.00 0.00 72 1010.9
20260505000513 22 258 1.6 8.0 0.00 0.00 0.00 70 1010.9
20260504235514 22 285 0.0 8.0 0.00 0.00 0.00 70 1011.0
20260504235014 22 222 1.6 11.3 0.00 0.00 0.00 73 1011.0
20260504234512 22 229 3.2 8.0 0.00 0.00 0.00 73 1011.0
20260504233514 22 182 3.2 4.8 0.00 0.00 0.00 73 1011.0
20260504233016 21 238 1.6 8.0 0.00 0.00 0.00 78 1011.0
20260504232515 21 182 4.8 8.0 0.00 0.00 0.00 78 1011.1
20260504232016 21 183 3.2 9.7 0.00 0.00 0.00 78 1011.1
20260504231514 21 175 3.2 11.3 0.00 0.00 0.00 80 1011.2
20260504231017 21 162 1.6 11.3 0.00 0.00 0.00 81 1011.2
20260504230512 21 158 3.2 9.7 0.00 0.00 0.00 79 1011.3
20260504230012 21 151 4.8 11.3 0.00 0.00 0.00 79 1011.4
20260504225517 21 169 6.4 9.7 0.00 0.00 0.00 79 1011.4